EW6005 Weather Reports


Display with metric or nautical units.
time (UTC)temp
F
wind
direction
speed
MPH
gust
MPH
rain 1hr
in
rain 24hr
in
rain mn
in
humidity
%
barometer
mb
20260508153359 70 0 1.0 4.0 0.00 0.00 0.00 89 998.8
20260508152859 69 42 1.0 3.0 0.00 0.00 0.00 89 998.9
20260508152400 69 0 0.0 3.0 0.00 0.00 0.00 89 998.8
20260508152117 69 0 1.0 2.0 0.00 0.00 0.00 89 999.0
20260508151400 69 62 0.0 3.0 0.00 0.00 0.00 89 999.0
20260508150900 69 179 1.0 3.0 0.00 0.00 0.00 89 999.1
20260508150359 69 252 1.0 3.0 0.00 0.00 0.00 89 999.2
20260508145859 69 0 1.0 4.0 0.00 0.00 0.00 89 999.2
20260508145359 68 0 1.0 5.0 0.00 0.00 0.00 89 999.2
20260508144859 68 0 1.0 5.0 0.00 0.00 0.00 90 999.2
20260508144617 68 0 1.0 2.0 0.00 0.00 0.00 90 999.1
20260508143900 68 348 1.0 2.0 0.00 0.00 0.00 90 999.2
20260508143359 68 32 1.0 3.0 0.00 0.00 0.00 90 999.3
20260508143116 67 50 0.0 3.0 0.00 0.00 0.00 90 999.5
20260508142357 68 53 0.0 2.0 0.00 0.00 0.00 90 999.6
20260508141856 68 95 0.0 4.0 0.00 0.00 0.00 90 999.5
20260508141351 68 176 1.0 4.0 0.00 0.00 0.00 90 999.4
20260508141340 68 38 1.0 3.0 0.00 0.00 0.00 90 999.3
20260508140351 68 311 1.0 3.0 0.00 0.00 0.00 90 999.4
20260508135851 68 302 1.0 3.0 0.00 0.00 0.00 90 999.4
20260508135351 68 342 1.0 3.0 0.00 0.00 0.00 90 999.3
20260508134851 68 348 1.0 3.0 0.00 0.00 0.00 90 999.3
20260508134351 68 0 1.0 4.0 0.00 0.00 0.00 89 999.3
20260508133852 68 0 1.0 4.0 0.00 0.00 0.00 89 999.4
20260508133351 68 0 1.0 4.0 0.00 0.00 0.00 90 999.4
20260508132851 68 0 0.0 2.0 0.00 0.00 0.00 90 999.2
20260508132350 68 0 0.0 1.0 0.00 0.00 0.00 90 999.0
20260508131851 67 319 0.0 1.0 0.00 0.00 0.00 90 998.8
20260508131831 67 300 0.0 0.0 0.00 0.00 0.00 90 999.0
20260508130850 67 0 0.0 1.0 0.00 0.00 0.00 89 998.8
20260508130351 67 300 1.0 2.0 0.00 0.00 0.00 89 998.7
20260508125852 67 0 1.0 2.0 0.00 0.00 0.00 90 998.7
20260508125348 67 146 1.0 2.0 0.00 0.00 0.00 90 998.9
20260508125111 67 341 1.0 3.0 0.00 0.00 0.00 89 998.9
20260508124346 67 348 1.0 4.0 0.00 0.00 0.00 89 998.5
20260508124106 67 167 1.0 4.0 0.00 0.00 0.00 89 998.3
20260508123609 67 149 1.0 3.0 0.00 0.00 0.00 89 998.6
20260508123105 67 190 1.0 2.0 0.00 0.00 0.00 89 999.0
20260508122345 67 265 0.0 2.0 0.00 0.00 0.00 88 999.1
20260508122101 67 314 0.0 2.0 0.00 0.00 0.00 88 999.0
20260508121343 67 334 0.0 0.0 0.00 0.00 0.00 88 998.9
20260508120840 67 334 0.0 0.0 0.00 0.00 0.00 87 998.8
20260508120341 67 333 0.0 0.0 0.00 0.00 0.00 87 998.7
20260508115841 67 333 0.0 0.0 0.00 0.00 0.00 87 999.0
20260508115339 67 329 0.0 0.0 0.00 0.00 0.00 87 998.9
20260508114839 67 0 0.0 0.0 0.00 0.00 0.00 87 998.7
20260508114336 67 0 0.0 0.0 0.00 0.00 0.00 87 998.9
20260508113835 67 0 0.0 0.0 0.00 0.00 0.00 87 999.1
20260508113603 68 0 0.0 0.0 0.00 0.00 0.00 87 999.0
20260508112833 68 0 0.0 0.0 0.00 0.00 0.00 86 999.1
20260508112332 68 0 0.0 0.0 0.00 0.00 0.00 86 999.0
20260508111828 68 265 0.0 0.0 0.00 0.00 0.00 86 998.9
20260508111328 68 265 0.0 0.0 0.00 0.00 0.00 86 999.0
20260508110827 68 284 0.0 1.0 0.00 0.00 0.00 86 999.0
20260508110329 68 284 0.0 2.0 0.00 0.00 0.00 86 998.9
20260508105825 68 284 0.0 2.0 0.00 0.00 0.00 86 998.4
20260508105326 68 61 1.0 4.0 0.00 0.00 0.00 86 998.3
20260508104823 68 327 1.0 4.0 0.00 0.00 0.00 85 998.6
20260508104322 68 326 1.0 3.0 0.00 0.00 0.00 86 998.5
20260508104306 68 323 1.0 2.0 0.00 0.00 0.00 85 998.5
20260508103538 68 306 0.0 2.0 0.00 0.00 0.00 85 998.5
20260508102819 68 263 0.0 1.0 0.00 0.00 0.00 85 998.6
20260508102316 68 263 0.0 0.0 0.00 0.00 0.00 86 998.9
20260508101817 68 263 0.0 0.0 0.00 0.00 0.00 86 999.2
20260508101313 68 263 0.0 0.0 0.00 0.00 0.00 85 999.2
20260508100815 68 350 0.0 0.0 0.00 0.00 0.00 85 999.0
20260508100312 68 346 0.0 0.0 0.00 0.00 0.00 86 999.3
20260508095811 68 346 0.0 0.0 0.00 0.00 0.00 85 999.3
20260508095311 68 321 0.0 1.0 0.00 0.00 0.00 85 999.1
20260508094808 68 342 0.0 1.0 0.00 0.00 0.00 85 998.5
20260508094306 69 165 0.0 1.0 0.00 0.00 0.00 85 998.3
20260508094028 68 215 0.0 0.0 0.00 0.00 0.00 85 998.5
20260508093538 68 215 0.0 1.0 0.00 0.00 0.00 85 998.8
20260508092806 68 215 0.0 1.0 0.00 0.00 0.00 85 998.8
20260508092740 68 215 0.0 1.0 0.00 0.00 0.00 85 998.6
20260508091800 68 215 0.0 2.0 0.00 0.00 0.00 85 998.5
20260508091257 68 215 0.0 3.0 0.00 0.00 0.00 84 998.7
20260508090756 68 300 0.0 3.0 0.00 0.00 0.00 84 998.4
20260508090258 68 270 0.0 0.0 0.00 0.00 0.00 84 998.3
20260508085757 68 270 0.0 0.0 0.00 0.00 0.00 84 998.3
20260508085252 68 270 0.0 0.0 0.00 0.00 0.00 84 998.4
20260508084753 68 270 0.0 1.0 0.00 0.00 0.00 84 998.7
20260508084520 68 270 0.0 1.0 0.00 0.00 0.00 83 998.7
20260508083752 68 270 0.0 1.0 0.00 0.00 0.00 83 998.7
20260508083248 68 269 0.0 0.0 0.00 0.00 0.00 84 998.8
20260508082748 68 269 0.0 2.0 0.00 0.00 0.00 83 998.7
20260508082249 68 269 0.0 2.0 0.00 0.00 0.00 83 998.8
20260508081749 68 269 0.0 3.0 0.00 0.00 0.00 84 998.8
20260508081513 68 333 0.0 3.0 0.00 0.00 0.00 83 998.7
20260508080749 68 349 0.0 2.0 0.00 0.00 0.00 83 998.6
20260508080248 68 324 0.0 2.0 0.00 0.00 0.00 83 998.6
20260508075749 68 324 1.0 2.0 0.00 0.00 0.00 83 998.7
20260508075249 68 324 0.0 2.0 0.00 0.00 0.00 83 998.9
20260508074745 68 298 0.0 2.0 0.00 0.00 0.00 83 999.0
20260508074244 68 274 0.0 1.0 0.00 0.00 0.00 83 999.1
20260508073744 68 274 0.0 2.0 0.00 0.00 0.00 84 999.4
20260508073504 68 274 0.0 2.0 0.00 0.00 0.00 83 999.5
20260508072744 68 243 0.0 0.0 0.00 0.00 0.00 83 999.4
20260508072245 68 243 0.0 0.0 0.00 0.00 0.00 83 999.4
20260508071745 68 243 0.0 0.0 0.00 0.00 0.00 83 999.3
20260508071511 68 243 0.0 1.0 0.00 0.00 0.00 83 999.2
20260508071002 68 243 0.0 1.0 0.00 0.00 0.00 83 999.3
20260508070245 68 243 0.0 1.0 0.00 0.00 0.00 83 999.4
20260508065744 68 243 0.0 1.0 0.00 0.00 0.00 83 999.3
20260508065244 68 0 0.0 0.0 0.00 0.00 0.00 83 999.2
20260508064745 68 0 0.0 0.0 0.00 0.00 0.00 83 999.2
20260508064244 68 0 0.0 0.0 0.00 0.00 0.00 83 999.3
20260508063744 68 350 0.0 0.0 0.00 0.00 0.00 83 999.5
20260508063244 68 297 0.0 0.0 0.00 0.00 0.00 84 999.6
20260508062746 68 297 0.0 0.0 0.00 0.00 0.00 84 999.5
20260508062244 68 297 0.0 0.0 0.00 0.00 0.00 83 999.6
20260508062010 68 297 0.0 0.0 0.00 0.00 0.00 83 999.9
20260508061244 68 297 0.0 0.0 0.00 0.00 0.00 83 999.7
20260508060746 68 297 0.0 0.0 0.00 0.00 0.00 83 999.4
20260508060505 68 297 0.0 0.0 0.00 0.00 0.00 83 999.3
20260508055745 68 297 0.0 0.0 0.00 0.00 0.00 83 999.0
20260508055723 68 297 0.0 0.0 0.00 0.00 0.00 83 999.0
20260508054745 68 297 0.0 0.0 0.00 0.00 0.00 83 999.3
20260508054246 68 297 0.0 0.0 0.00 0.00 0.00 82 999.5
20260508053745 68 258 0.0 2.0 0.00 0.00 0.00 82 999.5
20260508053244 68 342 0.0 2.0 0.00 0.00 0.00 82 999.5
20260508052744 68 319 0.0 0.0 0.00 0.00 0.00 82 999.2
20260508052244 68 334 0.0 0.0 0.00 0.00 0.00 82 999.0
20260508051744 68 267 0.0 0.0 0.00 0.00 0.00 81 999.0
20260508051244 68 267 0.0 0.0 0.00 0.00 0.00 81 999.1
20260508051009 68 267 0.0 0.0 0.00 0.00 0.00 81 999.2
20260508050244 68 267 0.0 0.0 0.00 0.00 0.00 81 999.3
20260508050002 68 268 0.0 0.0 0.00 0.00 0.00 81 999.2
20260508045235 69 268 0.0 0.0 0.00 0.00 0.00 81 999.4
20260508044735 69 268 0.0 0.0 0.00 0.00 0.00 81 999.3
20260508044232 69 268 0.0 0.0 0.00 0.00 0.00 81 999.2
20260508043954 69 268 0.0 0.0 0.00 0.00 0.00 81 999.2
20260508043453 69 268 0.0 0.0 0.00 0.00 0.00 80 999.2
20260508042731 69 268 0.0 0.0 0.00 0.00 0.00 81 999.3
20260508042228 69 268 0.0 0.0 0.00 0.00 0.00 81 999.4
20260508041725 69 268 0.0 0.0 0.00 0.00 0.00 81 999.4
20260508041225 69 268 0.0 0.0 0.00 0.00 0.00 81 999.6
20260508040725 69 268 0.0 0.0 0.00 0.00 0.00 80 999.7
20260508040227 69 268 0.0 0.0 0.00 0.00 0.00 80 999.8
20260508035722 69 105 0.0 0.0 0.00 0.00 0.00 80 999.5
20260508035220 69 105 0.0 0.0 0.00 0.00 0.00 80 999.3
20260508034719 69 108 0.0 2.0 0.00 0.00 0.00 80 999.2
20260508034216 69 53 0.0 2.0 0.00 0.00 0.00 80 999.1
20260508033716 69 21 0.0 2.0 0.00 0.00 0.00 81 999.4
20260508033216 69 48 1.0 2.0 0.00 0.00 0.00 80 999.2
20260508032713 69 48 0.0 2.0 0.00 0.00 0.00 80 999.2
20260508032213 69 302 0.0 2.0 0.00 0.00 0.00 81 999.6
20260508031712 69 344 0.0 1.0 0.00 0.00 0.00 81 999.4
20260508031212 69 0 0.0 1.0 0.00 0.00 0.00 81 999.4
20260508031151 69 0 0.0 2.0 0.00 0.00 0.00 81 999.5
20260508030204 69 0 0.0 2.0 0.00 0.00 0.00 81 999.4
20260508025704 69 0 0.0 1.0 0.00 0.00 0.00 81 999.5
20260508025201 69 0 0.0 1.0 0.00 0.00 0.00 82 999.4
20260508024659 69 0 0.0 1.0 0.00 0.00 0.00 82 999.7
20260508024156 69 0 0.0 1.0 0.00 0.00 0.00 82 999.8
20260508023656 70 0 0.0 2.0 0.00 0.00 0.00 82 999.9
20260508023155 70 0 0.0 3.0 0.00 0.00 0.00 82 999.9
20260508022652 70 0 0.0 3.0 0.00 0.00 0.00 83 999.9
20260508022151 70 0 0.0 0.0 0.00 0.00 0.00 83 999.6
20260508021650 70 0 0.0 0.0 0.00 0.00 0.00 83 999.6
20260508021144 70 0 0.0 0.0 0.00 0.00 0.00 83 999.7
20260508020643 70 0 0.0 0.0 0.00 0.00 0.00 82 999.7
20260508020142 71 0 0.0 0.0 0.00 0.00 0.00 82 999.6
20260508015642 71 0 0.0 0.0 0.00 0.00 0.00 82 999.7
20260508015138 71 0 0.0 0.0 0.00 0.00 0.00 82 999.7
20260508014638 71 0 0.0 0.0 0.00 0.00 0.00 81 999.8
20260508014136 71 0 0.0 0.0 0.00 0.00 0.00 81 999.6
20260508013634 71 0 0.0 0.0 0.00 0.00 0.00 81 999.7
20260508013355 71 0 0.0 0.0 0.00 0.00 0.00 81 999.8
20260508012855 72 0 0.0 0.0 0.00 0.00 0.00 80 999.5
20260508012134 72 0 0.0 0.0 0.00 0.00 0.00 79 999.5
20260508011853 72 0 0.0 0.0 0.00 0.00 0.00 79 999.5
20260508011135 72 0 0.0 0.0 0.00 0.00 0.00 79 999.6
20260508010858 72 0 0.0 0.0 0.00 0.00 0.00 79 999.6
20260508010130 72 0 0.0 0.0 0.00 0.00 0.00 78 999.4
20260508005630 73 0 0.0 0.0 0.00 0.00 0.00 79 999.4
20260508005130 73 0 0.0 0.0 0.00 0.00 0.00 79 999.4
20260508004630 73 0 0.0 0.0 0.00 0.00 0.00 78 999.3
20260508004348 73 0 0.0 0.0 0.00 0.00 0.00 78 999.3
20260508003622 73 0 0.0 0.0 0.00 0.00 0.00 78 999.1
20260508003122 74 0 0.0 0.0 0.00 0.00 0.00 78 998.8
20260508002841 74 0 0.0 1.0 0.00 0.00 0.00 78 999.2
20260508002122 74 0 0.0 1.0 0.00 0.00 0.00 78 999.4
20260508001623 74 0 0.0 1.0 0.00 0.00 0.00 77 999.5
20260508001123 74 0 0.0 1.0 0.00 0.00 0.00 77 999.5
20260508000622 74 0 0.0 2.0 0.00 0.00 0.00 76 999.6
20260508000123 74 334 0.0 2.0 0.00 0.00 0.00 76 999.7
20260507235623 74 0 0.0 2.0 0.00 0.00 0.00 76 999.6
20260507235122 75 0 0.0 3.0 0.00 0.00 0.00 75 999.5
20260507234841 75 0 0.0 3.0 0.00 0.00 0.00 75 999.7
20260507234122 75 0 1.0 2.0 0.00 0.00 0.00 75 999.6
20260507233622 75 0 1.0 2.0 0.00 0.00 0.00 75 999.8
20260507233122 76 0 1.0 3.0 0.00 0.00 0.00 75 999.7
20260507232625 76 0 1.0 3.0 0.00 0.00 0.00 75 999.6
20260507232123 76 0 1.0 2.0 0.00 0.00 0.00 76 999.6
20260507231622 76 0 1.0 3.0 0.00 0.00 0.00 76 999.5
20260507231122 76 0 1.0 3.0 0.00 0.00 0.00 75 999.4
20260507230622 76 0 0.0 3.0 0.00 0.00 0.00 75 999.4
20260507230122 76 313 0.0 2.0 0.00 0.00 0.00 75 999.4
20260507225622 76 313 1.0 3.0 0.00 0.00 0.00 75 999.5
20260507225344 76 313 1.0 5.0 0.00 0.00 0.00 75 999.4
20260507224622 76 0 0.0 5.0 0.00 0.00 0.00 77 999.2
20260507224122 76 0 0.0 2.0 0.00 0.00 0.00 76 999.1
20260507223622 76 0 1.0 2.0 0.00 0.00 0.00 76 999.1
20260507223339 76 0 1.0 5.0 0.00 0.00 0.00 75 998.9
20260507222618 76 0 1.0 5.0 0.00 0.00 0.00 74 999.0
20260507222118 76 0 1.0 2.0 0.00 0.00 0.00 75 999.0
20260507221618 76 0 1.0 2.0 0.00 0.00 0.00 77 999.1
20260507221118 76 0 0.0 2.0 0.00 0.00 0.00 76 999.0
20260507220847 76 0 1.0 1.0 0.00 0.00 0.00 77 999.1
20260507220119 76 0 0.0 2.0 0.00 0.00 0.00 76 999.3
20260507215618 76 342 1.0 2.0 0.00 0.00 0.00 76 999.4
20260507215340 76 0 1.0 2.0 0.00 0.00 0.00 75 999.4
20260507214839 76 341 1.0 4.0 0.00 0.00 0.00 75 999.4
20260507214114 76 0 1.0 4.0 0.00 0.00 0.00 75 999.3
20260507213841 76 0 1.0 4.0 0.00 0.00 0.00 75 999.4
20260507213115 76 0 1.0 4.0 0.00 0.00 0.00 75 999.4
20260507212614 76 0 1.0 3.0 0.00 0.00 0.00 76 999.4
20260507212114 76 0 1.0 3.0 0.00 0.00 0.00 76 999.3
20260507211614 77 0 1.0 3.0 0.00 0.00 0.00 75 999.4
20260507211113 77 0 1.0 3.0 0.00 0.00 0.00 75 999.5
20260507210614 77 0 1.0 3.0 0.00 0.00 0.00 75 999.6
20260507210114 77 0 1.0 4.0 0.00 0.00 0.00 75 999.8
20260507205828 77 0 1.0 4.0 0.00 0.00 0.00 74 999.7
20260507205058 77 0 1.0 5.0 0.00 0.00 0.00 77 999.8
20260507204559 77 0 1.0 5.0 0.00 0.00 0.00 76 999.8
20260507204321 77 0 1.0 3.0 0.00 0.00 0.00 76 999.7
20260507203558 77 0 1.0 2.0 0.00 0.00 0.00 76 999.9
20260507203057 77 0 1.0 4.0 0.00 0.00 0.00 75 999.9
20260507202558 77 0 2.0 4.0 0.00 0.00 0.00 75 1000.0
20260507202059 77 0 2.0 4.0 0.00 0.00 0.00 75 1000.0
20260507201554 76 0 1.0 6.0 0.00 0.00 0.00 76 1000.1
20260507201054 76 0 1.0 6.0 0.00 0.00 0.00 76 1000.1
20260507200550 76 0 1.0 3.0 0.00 0.00 0.00 77 1000.1
20260507200049 76 0 1.0 6.0 0.00 0.00 0.00 76 1000.1
20260507195549 76 0 1.0 6.0 0.00 0.00 0.00 75 1000.2
20260507195050 76 0 2.0 4.0 0.00 0.00 0.00 76 1000.4
20260507194816 76 23 2.0 4.0 0.00 0.00 0.00 75 1000.7
20260507194049 76 313 2.0 5.0 0.00 0.00 0.00 76 1000.8
20260507193550 76 10 1.0 5.0 0.00 0.00 0.00 76 1000.4
20260507193049 76 319 1.0 4.0 0.00 0.00 0.00 76 1000.4
20260507192548 76 134 2.0 5.0 0.00 0.00 0.00 76 1000.4
20260507192045 76 331 1.0 5.0 0.00 0.00 0.00 78 1000.5
20260507191807 76 327 1.0 8.0 0.00 0.00 0.00 77 1000.6
20260507191040 75 344 1.0 8.0 0.00 0.00 0.00 78 1001.0
20260507190540 75 312 1.0 4.0 0.00 0.00 0.00 79 1001.1
20260507190040 74 51 1.0 2.0 0.00 0.00 0.00 79 1001.3
20260507185803 74 314 1.0 5.0 0.00 0.00 0.00 79 1001.4
20260507185037 73 338 1.0 5.0 0.00 0.00 0.00 79 1001.4
20260507184754 73 321 2.0 4.0 0.00 0.00 0.00 79 1001.4
20260507184035 73 22 2.0 5.0 0.00 0.00 0.00 79 1001.3
20260507183758 73 30 2.0 5.0 0.00 0.00 0.00 80 1001.5
20260507183035 73 349 2.0 10.0 0.00 0.00 0.00 80 1001.5
20260507182531 73 315 2.0 10.0 0.00 0.00 0.00 79 1001.5
20260507182030 72 49 1.0 5.0 0.00 0.00 0.00 80 1001.5
20260507181530 72 288 2.0 5.0 0.00 0.00 0.00 82 1001.6
20260507181248 72 30 1.0 5.0 0.00 0.00 0.00 81 1001.6
20260507180527 71 44 1.0 4.0 0.00 0.00 0.00 81 1001.8
20260507180245 71 0 1.0 4.0 0.00 0.00 0.00 81 1001.9
20260507175523 71 53 1.0 3.0 0.00 0.00 0.00 82 1002.0
20260507175024 70 82 1.0 3.0 0.00 0.00 0.00 83 1001.9
20260507174524 70 336 1.0 3.0 0.00 0.00 0.00 82 1002.0
20260507174021 70 349 1.0 3.0 0.00 0.00 0.00 83 1002.2
20260507173522 69 349 1.0 3.0 0.00 0.00 0.00 83 1002.5
20260507173242 69 349 1.0 4.0 0.00 0.00 0.00 82 1002.5
20260507172518 69 38 1.0 4.0 0.00 0.00 0.00 82 1002.5
20260507172016 70 345 1.0 3.0 0.00 0.00 0.00 83 1002.5
20260507171517 69 306 2.0 5.0 0.00 0.00 0.00 83 1002.6
20260507171015 69 349 1.0 5.0 0.00 0.00 0.00 82 1002.5
20260507170511 69 335 1.0 4.0 0.00 0.00 0.00 84 1002.3
20260507170012 69 295 2.0 4.0 0.00 0.00 0.00 83 1002.2
20260507165507 69 331 1.0 4.0 0.00 0.00 0.00 83 1002.4
20260507165007 69 9 1.0 4.0 0.00 0.00 0.00 84 1002.3
20260507164507 69 14 1.0 4.0 0.00 0.00 0.00 85 1002.3
20260507164003 68 315 1.0 3.0 0.00 0.00 0.00 85 1002.2
20260507163501 68 336 1.0 3.0 0.00 0.00 0.00 85 1002.1
20260507163001 67 44 1.0 4.0 0.00 0.00 0.00 85 1002.0
20260507162946 67 329 2.0 4.0 0.00 0.00 0.00 85 1001.9
20260507162219 67 30 2.0 5.0 0.00 0.00 0.00 84 1001.8
20260507161459 67 292 1.0 5.0 0.00 0.00 0.00 85 1001.9
20260507160959 66 60 1.0 3.0 0.00 0.00 0.00 86 1001.9
20260507160501 66 56 1.0 4.0 0.00 0.00 0.00 86 1001.8
20260507155959 66 10 1.0 4.0 0.00 0.00 0.00 87 1001.8
20260507155456 65 154 1.0 5.0 0.00 0.00 0.00 87 1001.7
20260507154957 65 53 1.0 5.0 0.00 0.00 0.00 87 1001.5
20260507154723 65 57 1.0 4.0 0.00 0.00 0.00 87 1001.6
20260507154213 64 350 2.0 4.0 0.00 0.00 0.00 87 1001.9